Weather History for Benton Harbor, MI

Change the Weather History Date:

Saturday, February 9, 2013

  Actual Average Record
Temperature  
Mean Temperature 24 °F -  
Max Temperature 34 °F 31 °F 58 °F (1990)
Min Temperature 15 °F 16 °F -12 °F (1985)
Degree Days  
Heating Degree Days 40    
Moisture  
Dew Point 19 °F    
Average Humidity 77    
Maximum Humidity 93    
Minimum Humidity 61    
Precipitation  
Precipitation 0.00 in - - ()
Sea Level Pressure  
Sea Level Pressure 30.34 in    
Wind  
Wind Speed 6 mph (SE)    
Max Wind Speed 13 mph    
Max Gust Speed 17 mph    
Visibility 8 miles    
Events      
Averages and records for this station are not official NWS values.
T = Trace of Precipitation, MM = Missing Value Source: NWS Daily Summary

Daily Weather History Graph

Daily Weather History Graph

Search for Another Location

Airport:

Trip Planner

Search our weather history database for the weather conditions in past years. The results will help you decide how hot, cold, wet, or windy it might be!

Date:

Astronomy

Feb. 09, 2013 Rise Set
Actual Time 7:49 AM EST 6:11 PM EST
Civil Twilight 7:20 AM EST 6:40 PM EST
Nautical Twilight 6:47 AM EST 7:13 PM EST
Astronomical Twilight 6:14 AM EST 7:45 PM EST
Moon 7:00 AM EST (2/9) 5:53 PM EST (2/9)
Length of Visible Light 11h 19m
Length of Day
10h 21m
Waning Crescent, 0% of the Moon is Illuminated
Feb 9
Waning Crescent
Feb 10
New
Feb 17
First Quarter
Feb 25
Full
Mar 4
Last Quarter

Hourly Weather History & Observations

Time (EST) Temp. Windchill Dew Point Humidity Pressure Visibility Wind Dir Wind Speed Gust Speed Precip Events Conditions
12:53 AM 27.0 °F 18.7 °F 19.0 °F 72% 30.39 in 10.0 mi ENE 8.1 mph - N/A   Overcast
1:53 AM 25.0 °F 19.3 °F 18.0 °F 75% 30.40 in 10.0 mi ENE 4.6 mph - N/A   Overcast
2:53 AM 21.9 °F 15.7 °F 17.1 °F 82% 30.40 in 10.0 mi East 4.6 mph - N/A   Overcast
3:21 AM 21.2 °F 16.4 °F 17.6 °F 86% 30.37 in 8.0 mi East 3.5 mph - N/A   Scattered Clouds
3:53 AM 19.9 °F - 18.0 °F 92% 30.41 in 6.0 mi Calm Calm - N/A   Clear
4:10 AM 19.4 °F - 17.6 °F 93% 30.39 in 6.0 mi Calm Calm - N/A   Mostly Cloudy
4:41 AM 17.6 °F - 15.8 °F 93% 30.39 in 5.0 mi Calm Calm - N/A   Scattered Clouds
4:53 AM 18.0 °F - 15.1 °F 88% 30.42 in 2.5 mi Calm Calm - N/A   Clear
5:13 AM 17.6 °F - 15.8 °F 93% 30.38 in 3.0 mi Calm Calm - N/A   Clear
5:53 AM 15.1 °F 6.4 °F 12.9 °F 91% 30.40 in 5.0 mi East 5.8 mph - N/A   Clear
6:53 AM 16.0 °F - 12.9 °F 88% 30.42 in 6.0 mi Calm Calm - N/A   Clear
7:53 AM 15.1 °F 6.4 °F 12.0 °F 88% 30.43 in 5.0 mi ESE 5.8 mph - N/A   Clear
8:53 AM 18.0 °F 8.7 °F 15.1 °F 88% 30.43 in 7.0 mi SE 6.9 mph - N/A   Clear
9:53 AM 21.9 °F 14.5 °F 17.1 °F 82% 30.43 in 7.0 mi SSE 5.8 mph - N/A   Clear
10:53 AM 25.0 °F 17.1 °F 18.0 °F 75% 30.41 in 8.0 mi SSE 6.9 mph - N/A   Clear
11:53 AM 28.0 °F 21.7 °F 19.9 °F 72% 30.40 in 10.0 mi SSE 5.8 mph - N/A   Clear
12:53 PM 30.9 °F 23.5 °F 21.0 °F 67% 30.37 in 10.0 mi SSE 8.1 mph - N/A   Clear
1:53 PM 33.1 °F 24.4 °F 21.0 °F 61% 30.33 in 10.0 mi South 11.5 mph - N/A   Clear
2:53 PM 33.1 °F 24.4 °F 21.0 °F 61% 30.30 in 10.0 mi SSE 11.5 mph - N/A   Clear
3:53 PM 34.0 °F 26.6 °F 21.9 °F 61% 30.30 in 10.0 mi SSE 9.2 mph 17.3 mph N/A   Clear
4:53 PM 34.0 °F 27.2 °F 21.9 °F 61% 30.28 in 10.0 mi SSE 8.1 mph - N/A   Clear
5:53 PM 33.1 °F 25.5 °F 21.9 °F 64% 30.26 in 10.0 mi SE 9.2 mph - N/A   Clear
6:53 PM 30.9 °F 22.2 °F 21.9 °F 69% 30.25 in 10.0 mi SE 10.4 mph - N/A   Clear
7:53 PM 30.9 °F 22.8 °F 21.9 °F 69% 30.24 in 10.0 mi SE 9.2 mph - N/A   Clear
8:53 PM 28.9 °F 20.4 °F 21.0 °F 72% 30.23 in 10.0 mi SE 9.2 mph - N/A   Clear
9:53 PM 30.0 °F 21.1 °F 21.9 °F 72% 30.22 in 10.0 mi SSE 10.4 mph - N/A   Clear
10:53 PM 30.0 °F 20.5 °F 21.9 °F 72% 30.20 in 10.0 mi SE 11.5 mph - N/A   Clear
11:53 PM 30.0 °F 20.0 °F 21.9 °F 72% 30.17 in 10.0 mi SE 12.7 mph - N/A   Clear